Wind_Speed
22 22 22 21 21 21 21 20 20 20 20 20 20 20 19 19 19 18 18 18 18 18 18 18 18 18 18 18 19 19 20 20 21 21 20 20 21 21 21 21 21 22 23 23 24 24 24 25 25 26 26 26 27 26 26 27 27 26 26 26 26 27 27 26 26 26 25 26 25 24 24 23 22 22 19 19 20 17 16 19 17 14 16 15 14 15 14 13
26 26 25 25 25 24 24 24 24 23 23 23 23 23 22 22 22 22 22 22 21 21 21 21 22 22 22 22 22 22 23 24 24 24 23 23 24 24 24 24 24 25 25 26 26 26 26 27 27 28 28 28 29 29 28 28 29 28 28 27 27 29 28 28 29 28 27 27 27 27 25 24 24 24 23 21 22 20 18 21 19 15 17 18 16 16 16 15
29 29 29 29 28 28 27 27 27 26 26 26 26 26 25 25 25 25 25 25 25 24 24 24 24 24 25 25 25 25 26 26 27 27 27 26 27 27 27 27 27 28 28 28 29 28 28 28 29 29 29 30 30 30 30 30 31 30 29 28 28 31 29 29 31 30 29 28 28 28 27 26 26 26 25 24 24 21 20 25 23 17 17 19 18 18 17 17
33 32 32 32 31 31 30 30 30 29 29 29 29 28 28 28 28 27 27 27 27 27 27 27 27 27 27 27 27 27 27 29 30 29 29 29 30 30 30 30 30 30 30 31 31 30 30 30 30 30 30 31 31 31 31 32 32 30 30 29 30 32 29 31 33 31 31 30 29 30 29 28 27 27 26 27 26 19 21 29 27 20 19 21 20 19 18 18
35 35 35 34 34 34 33 33 32 32 32 31 31 31 30 30 30 30 30 30 30 29 29 29 29 29 29 29 28 28 29 30 31 30 31 31 31 32 32 32 32 31 31 31 32 32 31 31 31 31 31 31 32 32 32 33 33 30 29 30 31 32 30 31 34 33 31 32 31 31 31 29 28 28 28 30 26 19 24 31 30 25 21 21 21 21 20 20
35 35 35 35 35 35 35 34 34 34 33 33 32 32 32 31 31 31 31 31 31 31 31 30 30 30 30 29 29 29 29 31 32 31 31 32 31 31 31 31 31 30 31 31 31 31 31 31 31 31 31 31 31 32 32 34 34 30 28 30 32 33 31 30 34 34 33 33 32 32 32 30 30 28 29 30 25 22 28 32 33 29 24 22 22 22 22 22
32 32 33 33 33 33 33 33 33 33 32 32 32 31 31 31 31 31 31 31 31 31 31 31 31 30 30 29 28 27 27 30 32 30 30 30 29 29 29 29 29 29 29 29 30 30 31 30 31 32 31 30 30 31 32 33 34 31 28 29 32 34 32 31 33 34 34 34 33 34 32 31 32 29 28 27 23 26 31 31 33 31 26 23 22 23 24 24
30 30 30 30 30 30 30 30 30 30 30 30 30 30 30 30 31 30 31 31 31 32 32 32 31 30 30 28 28 25 24 30 32 30 28 28 28 28 28 28 28 28 28 29 29 30 31 31 33 34 33 31 31 31 33 35 35 33 30 30 32 32 33 32 33 33 35 35 35 36 34 32 34 31 26 22 22 29 32 30 32 32 28 25 25 25 26 27
32 31 31 31 31 30 30 30 30 31 31 31 31 31 31 31 31 31 32 32 33 33 33 33 32 32 30 28 27 22 23 31 32 30 29 29 29 29 29 29 29 29 30 30 31 32 33 34 35 36 35 33 33 32 34 36 35 34 34 32 31 31 32 33 32 33 34 35 36 38 36 34 35 32 22 16 22 31 32 31 32 32 30 29 28 28 28 28
35 34 34 34 33 32 32 32 32 32 33 33 33 33 33 33 33 33 33 33 34 34 34 34 33 33 31 29 27 21 25 34 32 30 31 31 31 31 31 31 31 32 32 32 33 34 35 37 38 38 38 36 34 33 34 36 36 35 36 34 32 32 31 31 31 32 34 36 37 40 40 36 35 31 18 13 25 33 33 32 32 33 32 32 32 31 30 29
38 38 38 37 36 35 35 34 34 34 34 35 35 35 35 35 34 34 34 34 35 35 35 35 35 35 33 32 27 23 29 35 33 33 34 34 34 33 33 33 33 33 34 33 35 36 37 39 40 40 41 39 36 35 35 36 36 36 37 36 33 33 32 28 30 31 34 36 37 42 44 38 32 27 18 16 27 34 35 33 32 33 33 34 35 34 32 30
40 40 40 39 39 38 37 37 36 36 36 36 37 37 37 37 36 36 36 37 37 37 37 38 38 38 37 34 28 29 33 34 34 35 36 36 36 34 34 34 33 34 34 35 36 38 39 40 41 41 41 41 38 36 37 36 38 38 39 39 34 34 32 26 28 32 34 37 37 43 47 40 29 23 20 22 29 34 35 34 32 33 34 35 36 36 35 33
41 41 41 41 41 40 40 39 38 38 38 38 39 39 39 39 39 39 39 40 40 40 40 41 42 42 42 36 30 34 36 34 35 36 38 39 37 36 36 35 36 36 36 37 38 39 40 41 42 42 42 42 39 38 39 38 40 39 40 42 37 36 33 24 29 34 35 38 38 43 49 41 28 21 21 26 30 33 35 34 32 32 34 35 36 37 37 35
43 43 43 43 43 42 42 42 41 40 40 40 41 41 41 41 41 41 41 42 42 42 42 43 44 44 45 38 33 36 36 36 37 38 40 40 37 36 36 37 37 37 37 38 39 40 41 42 43 44 42 41 39 38 39 40 41 39 41 44 40 41 37 27 32 36 36 38 39 44 50 44 32 23 21 27 32 33 35 34 33 33 33 34 34 35 36 35
43 43 43 43 43 43 43 43 43 43 42 42 42 43 43 43 43 42 42 42 43 44 44 44 45 46 46 40 35 36 36 37 39 40 41 39 38 37 37 38 38 37 39 40 40 41 42 44 45 45 44 41 39 39 40 42 41 38 42 43 40 44 45 36 35 36 36 38 40 45 50 48 39 28 22 28 33 34 36 35 33 33 33 33 33 33 34 34
44 44 44 44 44 44 44 44 44 44 43 43 43 43 43 44 43 43 43 43 44 44 45 46 46 47 48 42 36 36 37 38 40 40 40 39 39 38 38 39 39 39 40 41 42 42 43 45 47 47 45 42 39 39 43 45 41 37 42 46 44 46 48 44 37 34 36 40 43 47 51 51 45 35 28 29 33 36 38 36 34 34 33 34 33 32 32 33
45 46 45 45 45 45 45 45 45 45 44 44 44 43 44 44 45 45 45 45 46 47 48 49 48 49 50 45 39 37 37 39 41 41 40 39 39 38 39 40 40 41 42 42 43 43 45 47 49 49 47 42 38 40 45 47 42 39 43 49 49 48 48 47 40 33 35 42 47 50 52 52 47 41 36 33 34 37 39 37 35 34 34 33 33 33 32 33
47 47 47 47 46 46 46 46 46 46 46 46 45 45 45 46 47 48 48 48 49 49 50 50 49 51 50 46 43 39 38 40 41 40 40 39 39 39 40 41 41 42 44 44 44 44 47 49 51 51 48 42 37 41 47 48 45 45 47 50 51 50 48 47 43 35 35 42 47 51 53 52 48 45 42 38 37 39 39 37 35 34 33 33 33 34 33 34
49 49 49 49 49 49 48 48 48 47 47 48 48 48 48 49 50 51 51 51 51 51 52 51 51 52 51 47 45 43 41 41 42 41 39 39 39 40 41 43 44 46 47 47 47 47 50 52 53 53 47 40 38 43 48 48 47 49 51 51 51 51 49 46 43 38 39 44 47 49 51 50 49 47 44 39 39 41 38 35 35 34 33 33 34 34 34 35
50 50 51 51 51 51 51 50 50 50 50 50 51 52 52 52 52 53 53 53 52 52 53 53 52 52 51 49 48 47 46 44 43 42 40 40 41 43 44 45 47 49 50 49 50 52 53 54 54 52 45 40 41 46 48 48 49 51 52 52 52 52 50 45 43 40 41 47 49 48 49 47 47 47 44 40 38 41 38 35 34 34 35 36 37 35 34 34
52 52 52 53 53 53 52 52 52 52 52 52 53 54 54 54 54 54 54 54 53 53 53 54 54 52 50 50 51 50 49 47 44 42 42 42 43 45 45 46 49 50 49 50 52 53 54 55 54 49 43 42 46 48 49 50 50 52 53 53 53 52 50 47 45 43 44 50 51 50 50 47 46 47 45 41 38 36 36 36 34 34 36 38 38 36 34 34
53 53 54 54 54 54 54 54 54 54 54 54 55 55 55 56 56 56 56 55 53 53 54 54 54 54 51 51 52 52 52 49 45 43 44 44 44 45 46 48 50 49 49 50 51 51 53 55 51 46 45 48 50 49 49 51 52 53 53 54 54 52 51 50 47 46 48 52 52 52 52 48 47 47 44 42 39 34 34 36 35 33 34 35 36 34 34 34
54 54 54 55 55 55 56 56 56 56 56 56 57 57 57 57 57 57 58 58 55 52 54 54 54 55 53 52 52 52 52 49 46 45 46 46 46 46 48 49 49 50 50 50 48 50 54 54 48 47 49 50 50 49 51 52 53 54 52 53 55 51 51 54 52 51 52 53 52 52 52 50 49 49 46 43 39 35 34 34 35 32 28 30 32 31 33 34
54 54 54 55 55 56 56 57 57 57 58 58 58 59 59 58 58 59 59 61 60 54 52 54 56 57 55 55 54 53 52 50 49 48 47 48 48 48 49 49 50 51 50 48 47 51 55 52 48 48 49 49 50 51 51 51 52 53 52 53 53 51 52 55 55 55 54 53 52 51 51 49 47 48 45 41 38 36 35 34 34 31 25 29 32 29 32 35
55 56 57 57 57 57 57 58 58 59 59 59 60 60 61 61 61 61 61 63 63 58 54 55 57 58 57 56 54 53 53 52 50 50 50 50 49 49 49 49 51 50 48 47 49 54 55 50 47 48 49 49 50 51 50 50 51 53 53 51 51 52 53 54 54 55 56 55 53 53 52 46 43 45 43 39 38 37 37 35 32 29 25 29 34 31 30 34
56 56 57 58 59 59 59 60 60 61 61 60 61 61 61 61 61 62 63 64 65 62 59 59 59 58 57 56 54 54 55 54 51 51 52 51 51 51 51 51 50 49 48 48 51 55 53 46 46 48 49 49 51 52 49 46 50 55 54 49 49 51 52 52 53 55 55 56 55 55 56 49 42 42 43 41 40 39 37 34 30 29 27 28 34 34 31 31
53 53 54 55 56 57 57 58 59 60 59 59 60 60 60 61 61 61 62 65 67 64 63 64 61 59 56 55 56 56 56 55 53 52 52 51 51 51 52 52 49 48 48 49 53 54 50 45 46 47 49 51 52 51 46 44 51 55 53 50 50 51 52 52 53 55 55 56 55 55 57 56 46 41 44 44 43 42 38 35 31 29 25 23 28 31 31 31
49 49 48 49 50 52 52 51 52 54 55 54 54 55 57 57 58 59 60 65 68 65 65 65 63 60 58 56 55 53 54 55 53 53 51 51 52 51 52 51 49 49 48 50 52 51 48 47 46 47 49 51 50 48 46 46 50 52 52 52 52 52 52 53 54 55 56 56 56 56 56 57 49 43 47 49 47 45 40 37 36 32 26 23 25 29 32 33
45 45 46 46 47 48 48 48 50 52 52 51 50 51 51 52 53 53 55 62 66 64 63 62 61 61 60 57 52 48 48 51 52 53 52 52 52 53 53 51 50 50 50 51 51 49 49 48 47 49 51 50 49 49 49 49 49 50 52 53 54 53 53 53 54 55 57 57 57 57 55 55 50 43 46 49 49 48 46 43 43 40 34 29 27 29 32 34
44 45 46 47 47 47 47 47 49 50 50 50 51 51 51 51 50 49 53 60 62 61 59 58 59 60 58 55 52 47 44 44 46 49 51 52 53 53 54 53 52 52 51 52 51 47 48 48 48 50 50 50 51 51 51 51 51 51 51 52 54 55 54 55 56 57 59 59 57 56 54 54 53 47 47 49 51 52 52 50 49 49 46 40 35 34 34 34
49 49 50 50 49 49 48 48 49 50 50 51 51 51 51 51 49 50 54 57 57 56 54 54 56 55 53 52 52 49 46 44 43 44 46 49 52 54 55 54 55 55 54 54 51 49 49 50 50 50 51 53 54 54 53 53 53 52 51 52 54 55 56 58 59 59 61 59 56 56 55 55 57 55 53 55 56 56 57 56 55 55 55 51 45 41 39 37
56 56 55 55 55 54 55 55 54 54 54 54 54 54 52 51 50 52 53 52 52 52 51 51 53 52 51 51 50 50 50 48 47 46 46 47 50 52 55 57 57 58 57 55 53 53 52 51 52 52 52 53 55 56 55 55 54 52 53 54 55 56 59 61 62 62 62 58 57 59 59 61 62 59 59 59 58 58 59 60 60 60 59 57 54 51 48 44
62 62 61 61 60 60 60 60 60 59 58 57 56 55 55 56 55 54 51 49 51 52 50 51 53 53 52 51 50 50 50 50 51 51 51 51 50 49 52 56 59 59 59 58 58 57 55 53 53 54 54 54 56 56 56 56 55 54 55 54 54 56 60 63 63 62 61 58 59 61 62 66 66 61 61 60 59 60 62 63 63 62 62 62 61 59 56 51
65 65 65 64 64 63 63 62 63 62 62 60 57 54 57 61 60 57 54 52 53 53 53 54 55 55 55 54 53 52 51 53 54 55 56 56 55 52 51 53 56 59 60 60 61 61 61 59 56 57 57 55 56 57 55 56 56 57 57 56 56 58 59 60 58 58 59 58 59 62 66 69 67 64 64 64 63 64 65 65 65 64 64 66 66 65 63 58
66 66 67 67 66 66 66 65 64 64 64 64 61 61 65 67 65 62 59 57 57 57 57 56 56 57 56 55 54 54 55 58 59 59 60 61 61 60 57 55 56 58 60 62 63 64 65 65 62 62 63 59 58 58 56 56 56 57 56 56 58 56 53 54 54 55 57 60 63 66 69 71 68 67 67 67 67 68 68 68 67 66 67 69 69 69 67 64
65 66 67 67 65 65 66 66 66 66 66 66 65 68 71 70 69 67 66 64 63 62 61 61 60 60 60 59 59 60 61 62 63 63 63 64 65 64 63 61 61 61 63 63 63 64 67 68 65 64 65 63 61 61 61 60 60 59 59 58 58 55 53 56 60 59 60 64 67 68 70 71 69 70 70 68 69 70 70 71 70 71 71 71 71 71 70 68
63 64 65 64 63 63 64 64 64 65 66 67 69 72 73 72 71 70 69 68 67 66 65 65 65 65 66 67 66 66 67 67 68 68 67 67 68 67 66 65 64 64 64 62 61 62 65 68 68 67 67 67 66 66 66 66 66 65 63 61 61 61 62 63 65 64 65 69 72 71 72 73 73 74 73 70 69 70 71 72 73 75 74 73 73 71 70 69
64 64 64 62 61 62 63 64 64 64 65 67 70 73 74 73 71 69 69 68 68 67 67 68 69 69 70 71 71 71 71 71 71 71 71 71 72 72 70 68 67 66 65 62 61 60 60 61 64 66 66 65 64 65 68 68 68 67 66 65 65 66 67 66 66 67 67 70 73 74 77 78 77 77 75 72 70 70 72 74 76 78 77 75 73 70 70 70
65 66 65 63 62 63 64 64 65 66 67 70 71 71 70 69 68 68 68 68 67 67 69 70 70 70 71 72 72 73 73 73 73 73 73 74 75 75 73 71 69 68 67 65 65 64 61 61 63 63 63 63 62 64 66 62 58 57 58 59 61 62 64 65 67 69 70 71 73 76 80 80 74 71 71 70 71 70 71 74 76 77 76 73 71 70 70 71
67 68 66 65 65 65 65 66 67 68 70 71 70 69 68 67 66 65 66 67 68 68 70 70 70 71 72 72 71 71 72 72 72 72 74 75 76 76 75 73 72 70 70 69 68 68 65 65 65 60 59 63 63 62 61 57 55 58 61 61 61 61 62 63 66 68 71 75 77 77 80 76 65 64 68 68 68 70 70 72 73 73 73 72 72 72 71 72
69 69 67 66 66 66 66 68 69 69 71 71 70 70 69 68 66 65 65 67 69 70 70 71 71 72 72 72 71 71 71 72 72 72 73 75 75 76 75 74 72 71 72 71 68 66 64 64 62 58 59 65 65 64 66 67 68 70 70 69 68 67 66 67 68 65 66 72 75 73 74 69 59 61 71 71 67 67 67 70 72 72 72 71 72 73 73 73
71 70 69 69 68 68 68 70 70 70 71 71 69 68 69 68 67 67 67 69 70 71 71 72 71 71 72 72 71 71 72 74 74 73 74 74 74 74 73 71 70 70 72 72 71 70 71 72 73 73 74 74 73 72 73 74 75 74 74 72 70 69 67 68 69 67 65 68 69 69 71 70 61 56 59 62 64 65 66 67 66 65 65 66 66 67 69 70
72 71 71 71 71 70 72 73 72 72 73 71 68 68 69 69 69 68 69 70 72 72 73 72 72 72 72 72 72 73 73 75 76 75 75 75 75 73 72 71 71 71 72 74 74 75 75 76 79 81 81 79 78 77 76 77 77 78 78 75 72 70 67 66 68 68 69 69 69 73 79 81 74 61 54 53 55 59 62 63 63 62 61 60 59 58 59 61
72 71 71 71 71 72 74 74 73 73 73 71 71 71 70 71 71 70 70 72 73 73 73 73 73 73 73 72 73 73 73 75 77 76 75 75 76 74 72 72 73 73 73 73 74 75 76 76 77 77 77 78 79 79 78 78 76 75 74 70 69 69 69 69 70 71 74 74 74 80 88 90 86 79 71 66 62 61 62 62 65 68 68 66 64 61 60 60
70 69 69 70 71 72 73 72 72 73 72 72 72 72 71 72 71 69 70 72 73 73 73 73 73 73 73 73 73 74 73 74 76 76 75 75 75 74 73 73 74 74 74 73 72 73 74 74 74 74 74 76 78 79 77 75 75 75 74 72 73 74 74 75 76 77 80 80 80 86 91 91 88 87 85 83 79 77 76 75 75 77 78 76 73 70 68 69
69 69 68 68 69 70 70 70 71 72 72 71 72 72 71 71 70 69 70 72 72 73 74 74 73 73 74 74 74 75 74 73 73 74 74 73 74 74 73 72 73 73 74 73 72 71 70 70 70 70 71 73 76 77 76 75 77 78 78 78 77 77 77 78 80 82 82 83 86 89 90 90 90 88 87 86 85 84 85 85 85 81 76 74 75 77 78 79
68 68 67 67 68 69 68 68 69 70 70 70 71 71 70 68 68 69 69 70 71 71 72 73 73 73 75 75 75 76 76 74 74 74 73 72 72 74 74 73 73 73 73 74 73 70 69 70 72 73 74 74 75 76 75 76 77 77 77 78 77 78 78 79 82 84 82 85 91 90 88 90 90 87 85 85 81 78 76 76 76 75 71 70 73 79 83 86
67 66 66 67 68 67 67 67 67 67 68 68 69 70 68 68 68 68 68 69 69 69 70 72 72 72 74 74 74 75 76 75 74 74 73 72 72 73 73 72 73 73 74 74 74 74 74 75 75 75 76 75 73 74 74 74 75 74 73 74 73 74 75 77 81 82 82 86 90 87 85 87 87 82 79 76 72 67 65 66 70 75 79 80 80 82 85 87
66 66 66 67 67 66 66 66 65 66 66 66 67 67 66 66 67 67 67 67 67 68 68 69 71 71 71 72 72 73 73 74 74 74 74 73 73 74 73 72 72 72 73 73 74 74 74 76 76 76 77 76 75 75 75 76 76 74 71 71 70 71 73 76 81 82 82 85 86 84 83 82 78 74 71 68 66 64 66 69 72 77 82 85 85 85 85 85
66 66 66 66 66 65 65 66 65 66 65 65 66 66 65 65 65 65 66 66 66 66 66 67 69 69 68 69 69 69 70 71 71 72 73 73 73 73 73 73 72 71 71 71 71 71 71 74 75 76 77 76 75 75 75 75 74 72 71 70 70 72 74 76 77 78 78 80 81 80 80 78 75 72 70 67 66 67 68 70 72 74 77 78 80 80 81 81
66 67 67 67 67 66 66 66 66 67 66 65 66 66 64 64 65 66 65 65 65 65 65 66 68 68 68 68 68 68 68 68 69 70 71 71 71 70 70 68 66 66 66 65 65 66 68 68 68 69 71 72 72 73 75 75 75 76 76 76 75 76 77 76 76 76 76 78 78 78 77 77 76 74 70 68 70 71 71 71 71 72 72 72 72 72 74 76
68 68 68 68 68 67 67 67 67 68 67 66 66 67 65 65 66 66 66 66 66 66 65 66 67 68 69 68 68 69 69 69 70 71 70 70 70 69 67 65 62 61 61 60 58 59 61 64 63 64 69 71 69 68 69 71 73 76 77 77 76 75 75 75 76 76 76 77 78 78 77 78 77 75 72 72 73 72 70 69 68 67 67 66 65 65 66 69
Wind_Direction
261 262 264 265 266 268 269 271 272 273 275 276 277 279 280 281 281 281 282 282 282 283 284 284 285 286 286 286 288 289 290 291 290 290 292 292 292 294 295 295 295 295 296 297 298 299 299 299 299 299 299 299 299 298 298 298 298 299 300 301 300 298 300 301 299 299 299 299 301 300 301 302 301 301 301 300 299 300 297 293 296 298 296 298 300 299 299 298
263 264 265 265 266 267 269 270 271 272 274 274 275 275 276 277 278 279 279 279 279 279 280 281 282 283 284 285 287 288 289 290 289 289 291 292 292 293 293 293 293 294 295 295 295 296 296 296 296 296 296 295 295 295 295 294 294 296 298 299 294 294 298 297 295 296 295 296 296 295 296 296 295 296 299 297 295 298 293 285 289 293 290 293 296 295 295 294
265 265 266 266 267 268 268 269 270 271 272 273 273 273 274 274 274 275 276 276 277 277 277 278 279 279 280 282 284 286 287 288 287 288 290 290 291 291 292 293 293 293 294 293 293 293 293 293 293 293 292 291 292 292 292 291 291 293 296 295 290 291 295 293 292 293 293 293 292 291 292 291 291 293 295 293 294 298 287 280 286 289 284 288 291 291 291 291
265 266 266 267 268 268 269 270 270 271 271 272 272 272 272 272 273 273 273 274 274 275 275 276 276 277 278 279 281 283 284 285 285 286 287 287 288 290 291 292 292 292 292 292 292 291 291 291 290 290 289 289 289 290 290 288 289 292 294 292 289 290 292 291 290 290 291 291 289 288 288 288 288 290 291 290 294 294 278 279 285 284 279 283 286 287 287 286
265 265 266 266 267 268 269 270 270 271 271 272 272 272 271 271 272 272 272 273 273 273 273 274 275 275 276 277 278 280 281 282 282 283 284 284 286 287 289 289 289 290 290 291 291 290 291 290 290 289 288 288 289 290 288 286 288 290 291 289 288 287 289 289 288 289 289 288 287 285 285 286 285 287 289 291 294 284 271 278 284 283 281 283 283 282 283 282
265 265 266 266 267 267 268 269 269 270 271 271 271 272 272 272 272 272 272 272 272 273 272 273 273 273 274 275 276 277 280 281 280 280 281 283 284 285 286 287 288 289 289 290 290 291 291 291 291 289 287 288 289 289 288 288 289 291 290 288 285 285 288 288 287 289 288 286 286 284 284 284 283 284 288 292 293 275 268 276 283 285 284 281 280 280 279 278
265 265 266 266 266 267 267 268 269 269 269 270 271 271 272 272 272 272 273 273 273 273 273 272 272 272 272 273 274 276 280 280 278 279 281 282 283 284 285 286 287 288 289 290 291 292 292 292 291 288 289 291 291 291 291 290 291 294 293 287 285 287 290 287 285 288 288 287 286 283 284 283 282 284 289 296 291 273 271 277 282 285 283 279 275 274 273 272
265 265 266 266 266 266 267 268 268 269 269 270 270 271 271 272 272 273 273 274 274 274 274 273 273 272 272 273 274 276 280 277 276 279 280 281 282 283 284 285 287 289 290 291 292 292 293 293 290 290 292 292 291 291 291 290 292 294 292 287 288 290 290 286 286 287 286 287 286 283 283 282 282 285 293 299 284 272 276 280 282 283 282 277 271 268 269 270
265 265 265 265 265 266 266 267 267 268 269 269 270 270 270 270 271 272 272 273 273 273 274 273 274 273 272 273 273 278 279 273 275 279 280 281 282 283 284 285 288 289 289 290 291 291 291 290 290 291 291 289 290 290 288 289 290 290 289 288 289 290 288 287 289 288 286 285 283 282 280 279 281 286 298 300 276 271 277 281 282 283 281 277 272 269 268 269
265 265 265 265 265 265 265 266 266 267 268 268 269 269 269 269 269 269 270 271 271 271 271 272 272 272 273 273 274 280 276 272 276 280 281 282 282 282 283 285 287 287 288 289 289 289 289 288 289 289 288 288 288 287 287 287 288 288 287 287 289 288 287 288 289 286 284 282 281 279 278 277 280 287 300 291 273 273 277 281 282 282 281 279 276 271 268 267
264 265 265 265 265 265 265 265 266 267 267 268 268 268 268 268 268 269 269 270 270 270 271 271 271 271 271 271 275 277 272 273 279 280 281 281 280 281 283 284 285 285 286 288 287 287 287 287 286 286 286 286 286 286 286 286 287 286 286 287 288 287 286 288 287 283 280 278 278 278 278 279 283 290 296 281 272 273 277 281 282 281 281 279 278 275 270 266
264 265 265 266 266 266 265 265 265 266 267 267 268 269 269 269 269 270 270 270 271 271 271 271 271 271 270 271 274 272 270 274 278 278 278 277 278 281 282 283 283 283 285 285 285 286 286 285 285 285 285 285 286 286 284 285 285 285 287 286 285 285 286 289 285 279 275 275 276 279 280 283 287 291 291 280 272 273 277 281 282 281 279 278 278 276 273 269
265 265 265 266 266 266 266 266 265 265 266 267 268 268 269 270 270 270 271 271 271 271 271 271 271 271 271 271 272 270 271 273 274 275 275 275 278 280 281 281 281 282 283 283 283 284 283 284 284 284 284 285 287 286 285 285 284 285 285 284 285 283 283 285 277 272 273 277 280 281 282 285 287 284 281 276 272 274 279 282 282 281 279 278 279 278 276 272
265 265 265 265 266 266 266 266 266 265 266 266 267 268 269 269 269 270 270 270 271 271 271 271 272 272 271 271 271 270 272 273 272 271 272 275 278 278 278 279 279 280 281 281 280 280 281 281 282 282 282 283 285 286 287 286 284 286 285 284 287 283 278 273 267 269 275 281 283 282 283 286 285 278 274 273 273 275 279 282 283 282 280 281 282 282 280 276
264 265 265 265 265 265 266 266 266 266 266 266 266 267 267 268 268 268 268 269 270 270 271 271 271 272 272 271 270 270 271 271 271 271 272 274 275 275 277 277 278 278 278 277 278 278 279 279 279 279 280 281 284 287 287 285 285 289 287 285 285 280 276 271 267 273 279 281 280 280 281 283 282 279 272 270 273 276 278 280 282 282 281 282 284 285 284 281
264 265 265 265 265 265 265 266 266 266 266 266 266 266 266 267 267 267 267 268 269 270 270 271 271 272 272 272 271 270 270 270 271 272 273 273 273 274 275 276 277 276 276 276 276 277 277 278 277 277 278 280 284 287 286 284 287 290 286 283 281 279 279 279 278 279 281 280 278 277 278 279 281 281 274 268 270 273 276 279 281 281 282 283 286 287 285 281
264 265 265 265 265 266 266 266 266 266 266 266 266 266 266 266 267 268 268 269 270 270 271 271 272 272 273 274 272 270 270 270 270 271 272 273 274 274 275 275 276 276 276 275 275 276 276 276 276 276 277 280 285 287 285 285 288 287 283 281 282 283 285 287 288 288 284 280 277 276 275 277 279 280 276 271 268 270 275 278 279 281 282 283 285 285 284 280
265 265 265 265 265 266 266 266 266 266 266 266 266 266 266 267 268 269 270 271 271 272 272 272 273 273 274 275 274 271 269 268 269 270 271 273 274 274 275 275 276 276 276 275 275 275 274 274 274 275 276 281 287 286 283 284 286 284 282 282 283 285 287 289 293 295 288 280 277 276 276 278 278 276 274 272 270 271 274 279 281 281 281 279 278 280 281 279
265 265 265 265 265 265 265 266 266 266 266 267 267 267 267 268 269 270 271 272 272 273 273 274 273 274 275 275 275 273 270 268 268 268 269 271 272 274 274 275 276 276 275 274 274 273 272 272 272 274 278 285 287 282 279 281 282 282 282 282 284 285 286 289 294 294 290 284 279 278 279 281 280 278 277 275 273 273 276 280 282 281 278 274 272 274 277 277
264 265 265 266 266 266 266 266 266 266 267 267 268 268 268 269 269 270 271 272 273 273 274 275 275 275 277 278 276 274 272 270 269 270 270 270 270 271 272 274 275 274 274 273 272 270 270 271 272 275 282 286 282 277 276 278 280 280 281 282 283 284 285 289 290 290 290 285 282 283 283 283 284 284 284 281 277 277 279 279 278 278 276 273 272 274 277 276
264 264 265 265 266 266 267 267 267 267 267 267 268 269 270 270 270 270 270 271 272 273 274 275 275 276 277 277 276 276 275 273 273 273 273 271 269 270 272 274 274 274 274 272 269 269 270 270 272 277 282 279 274 274 276 278 279 279 280 281 282 283 285 286 286 288 287 283 284 286 285 284 285 285 285 285 283 283 284 281 277 274 273 273 275 276 275 272
265 265 265 265 265 266 266 267 267 268 268 268 268 269 269 270 271 271 271 270 270 272 273 274 276 277 276 276 276 276 276 277 278 277 274 271 270 272 273 273 273 273 272 270 269 271 270 270 273 276 275 272 271 274 275 276 276 277 279 280 281 283 284 283 284 285 283 282 285 286 285 285 284 284 285 286 288 289 289 286 282 276 273 275 277 276 273 269
264 264 265 265 265 264 265 265 266 266 267 267 268 268 268 269 270 270 271 271 270 269 272 274 275 275 275 275 276 276 278 281 280 277 275 273 272 271 271 271 271 270 269 270 272 272 271 271 273 272 271 271 273 273 273 273 274 276 278 279 280 282 284 283 283 283 282 282 284 285 286 285 285 285 285 286 289 291 289 285 283 281 280 280 278 276 273 269
262 262 263 263 263 263 263 264 264 265 266 266 267 268 268 268 268 269 270 271 271 269 269 272 273 273 274 274 275 278 280 280 278 277 276 274 273 271 270 269 268 267 269 272 272 271 270 272 272 271 271 273 272 272 272 273 273 275 276 278 279 282 282 282 284 285 283 282 283 285 285 284 285 285 285 288 291 290 287 283 282 287 291 289 285 280 273 271
260 261 261 262 262 262 262 262 263 263 264 265 266 267 267 267 267 268 269 271 272 272 270 269 270 272 273 274 276 278 278 278 277 277 276 274 274 272 270 268 267 269 271 271 269 267 268 270 272 272 272 272 271 272 272 273 275 277 277 277 278 280 279 281 283 284 284 284 284 284 284 284 286 286 288 293 292 287 284 281 281 288 292 290 290 287 279 274
261 262 262 262 262 262 262 262 263 264 264 265 266 266 267 267 267 267 268 270 272 273 271 269 268 268 270 273 275 276 276 276 275 274 274 275 274 273 271 270 269 269 270 269 267 266 267 269 271 270 270 270 271 272 273 275 276 275 275 276 277 277 278 279 280 280 282 284 285 284 283 285 286 288 294 297 292 287 283 281 281 284 287 284 285 288 285 279
264 264 265 264 263 263 263 264 264 265 266 266 266 266 266 266 266 267 268 270 271 272 272 270 269 269 270 271 273 274 273 273 272 271 272 273 273 272 272 271 270 269 268 267 266 267 268 268 267 268 269 269 270 272 274 274 272 272 275 276 275 275 275 276 277 279 280 281 282 282 283 286 287 290 297 297 291 287 286 287 286 285 285 281 279 282 283 282
265 266 267 267 267 266 266 265 266 267 268 269 269 268 267 267 266 267 269 269 270 271 271 271 272 273 273 272 271 271 271 270 269 268 268 269 271 271 271 271 270 268 267 267 267 268 267 265 266 266 267 268 270 273 271 269 269 272 274 274 274 274 274 276 277 278 279 279 279 279 282 288 290 291 295 293 288 289 291 292 292 290 287 283 280 279 278 280
266 267 269 269 270 269 268 268 269 269 270 271 270 269 269 268 268 269 268 268 269 270 271 273 275 275 275 274 273 271 269 269 268 267 267 267 268 268 268 268 267 266 266 266 266 267 267 266 267 266 266 268 269 268 267 267 268 270 271 272 274 274 275 276 277 277 278 277 278 281 286 291 290 287 287 286 285 289 292 293 294 293 289 286 285 280 277 278
265 267 268 269 270 269 268 269 269 270 270 270 269 269 269 269 269 269 268 267 269 271 272 274 274 273 273 273 274 273 271 269 268 267 267 266 266 265 265 264 264 263 263 263 264 264 265 266 266 266 267 267 266 265 265 266 266 267 268 270 272 273 275 275 275 275 275 275 279 283 287 291 287 281 282 285 287 290 292 294 296 294 292 291 289 285 280 278
264 265 266 267 268 268 267 267 268 269 270 269 269 268 268 268 267 266 267 269 272 272 272 272 270 270 270 271 273 275 274 272 269 268 266 265 264 264 263 263 262 261 259 260 260 260 262 263 264 265 265 265 265 264 263 263 264 265 267 268 269 270 271 271 272 272 272 275 281 283 283 284 280 277 280 285 288 291 293 295 295 293 293 293 292 288 284 281
264 264 265 266 266 267 267 267 268 269 269 269 269 268 267 266 264 264 266 270 272 272 270 269 268 267 267 269 272 275 277 277 275 273 270 267 265 265 264 263 263 263 260 258 259 259 260 262 263 263 264 265 265 265 264 263 264 265 266 267 268 268 268 268 269 269 271 277 280 280 279 277 274 275 278 282 286 290 292 292 291 291 292 292 291 289 285 282
264 265 265 265 266 267 268 268 268 269 268 268 269 269 269 266 263 264 264 267 270 271 270 269 268 267 267 269 271 274 276 278 279 278 275 272 269 268 267 264 264 265 263 260 259 260 260 260 263 264 265 265 265 265 265 264 264 265 266 267 268 268 267 267 268 270 274 278 278 275 274 273 274 277 281 283 286 287 287 287 288 289 291 291 290 289 287 284
266 267 267 267 267 267 268 268 269 269 268 267 265 264 265 265 264 264 263 265 267 268 269 268 268 267 268 269 270 271 273 275 276 277 276 275 273 271 270 268 266 267 268 266 263 263 263 262 265 267 266 265 265 265 266 265 264 264 265 266 266 267 269 270 272 274 275 275 271 269 269 272 277 281 283 284 285 284 285 284 285 287 289 289 289 289 289 288
267 267 268 268 269 269 269 268 268 268 268 267 265 262 262 264 266 266 265 264 265 266 266 266 267 267 267 267 268 269 271 273 273 274 274 274 274 273 273 272 270 270 271 270 267 266 266 265 266 267 265 265 264 264 266 267 266 265 265 265 267 270 273 274 274 273 272 269 268 268 270 273 277 280 280 282 283 283 284 284 285 286 286 286 288 289 290 290
268 268 268 268 269 270 270 269 269 268 267 267 266 264 264 266 267 267 266 265 265 265 265 265 265 265 265 265 266 268 270 271 272 272 272 272 272 272 273 273 273 273 274 274 273 272 270 267 265 265 265 263 263 264 266 268 269 267 266 267 271 273 274 274 273 272 271 270 268 269 271 273 275 276 278 279 280 281 281 283 284 283 283 284 286 287 288 288
268 268 268 268 270 271 271 271 270 269 268 267 266 266 267 267 267 267 267 268 268 267 267 266 264 264 264 264 265 267 269 270 271 271 271 271 271 271 271 271 272 273 275 278 279 277 276 273 269 267 267 264 262 263 265 266 269 271 271 272 274 275 274 275 276 274 273 272 271 270 270 271 272 274 277 277 277 278 279 279 279 279 281 283 284 285 285 284
269 269 269 269 270 270 271 271 270 270 269 267 267 267 268 268 268 269 269 269 270 270 269 268 266 265 265 266 266 267 268 269 269 270 270 270 271 271 271 270 271 272 275 277 279 279 280 279 275 272 272 272 268 266 266 266 269 273 275 274 273 274 275 275 275 275 274 274 274 273 270 270 272 275 277 276 274 275 276 276 276 277 279 281 282 283 283 282
270 270 270 271 270 270 270 270 269 269 268 267 269 269 269 269 269 269 269 269 270 270 270 270 269 268 267 267 267 267 268 268 268 268 269 269 270 270 271 270 270 271 272 273 275 276 277 278 276 273 273 275 274 272 271 271 271 272 273 271 271 272 273 274 274 274 274 273 273 273 270 269 273 277 278 276 275 273 273 273 274 275 277 279 280 280 280 280
270 270 271 271 270 269 269 268 267 267 268 269 271 272 271 270 269 268 269 270 270 270 270 270 270 270 269 269 269 269 269 268 268 268 268 268 268 269 269 269 269 270 270 271 273 275 276 277 277 275 271 270 270 271 272 272 271 271 271 272 272 271 271 273 273 272 271 270 269 269 268 266 270 277 279 278 277 275 274 274 273 274 275 275 275 275 274 276
269 270 270 269 269 268 268 267 267 267 268 269 271 272 272 271 271 270 270 269 269 269 269 269 269 270 271 271 270 270 270 269 268 267 267 267 268 268 268 269 270 271 271 271 271 273 275 275 273 270 266 266 268 270 272 272 272 273 274 274 274 273 272 272 272 272 272 271 270 269 269 266 264 273 281 283 280 276 274 274 274 275 275 273 272 272 272 272
267 268 268 268 267 267 266 266 266 267 267 268 270 271 271 271 271 270 269 269 269 269 269 269 270 270 271 271 271 270 270 269 268 267 267 267 267 268 268 269 270 270 270 270 269 269 269 270 269 269 268 269 269 270 271 272 272 273 273 275 275 276 276 274 274 276 275 274 273 271 272 270 263 264 273 276 275 274 273 272 274 275 276 276 275 274 274 274
267 268 268 268 267 266 265 265 266 267 268 269 269 269 268 268 268 268 269 269 269 269 269 270 270 270 270 270 270 269 269 269 269 268 268 268 267 268 269 269 269 269 269 269 270 270 270 270 272 272 273 273 271 270 269 270 271 271 272 274 275 275 276 276 276 277 275 273 272 271 271 272 270 267 264 261 262 267 270 273 275 277 278 279 278 277 277 277
267 267 267 267 267 266 266 266 267 268 268 268 267 266 266 267 267 267 268 268 268 269 270 270 270 270 269 269 269 268 269 270 270 269 269 269 269 269 269 269 269 269 270 271 271 271 271 271 272 273 274 273 272 270 270 270 271 272 273 273 272 272 273 272 273 273 272 270 269 269 270 273 275 275 271 266 261 262 265 269 273 277 278 278 277 276 275 274
266 266 266 266 266 266 267 268 268 268 267 267 266 266 266 266 266 267 267 266 267 268 269 269 269 270 270 269 269 269 269 269 270 270 269 269 269 268 268 268 269 270 270 271 271 271 271 271 272 272 272 272 272 272 273 273 273 272 271 270 269 270 270 271 271 270 269 269 269 269 271 274 277 278 277 275 271 269 267 266 269 273 276 275 273 270 270 270
267 266 266 266 266 266 267 268 268 268 268 268 268 267 267 267 267 267 265 265 266 267 267 268 268 269 269 269 269 269 269 269 270 271 271 271 270 270 269 269 269 269 269 271 272 272 271 270 270 270 270 270 271 272 274 274 272 271 271 271 271 271 270 271 270 269 271 272 272 271 274 277 278 279 280 280 279 277 275 272 271 272 273 272 269 268 268 268
267 267 266 266 265 266 267 268 268 269 269 269 269 269 269 269 268 267 266 266 266 266 267 268 268 269 269 269 269 270 269 269 270 272 272 272 271 271 271 271 271 270 270 271 271 271 270 269 269 269 270 270 272 273 273 273 271 271 272 272 273 273 274 273 272 273 275 275 274 275 277 278 279 280 281 281 281 281 280 277 274 272 269 266 264 264 266 266
268 268 267 267 267 267 268 268 268 269 269 269 269 270 270 269 269 268 268 267 267 267 267 268 268 268 269 270 270 270 271 270 270 271 272 272 272 272 272 272 272 272 271 271 272 272 271 271 271 271 271 272 272 273 273 272 271 271 272 272 273 273 273 273 273 275 275 274 275 277 278 278 279 281 282 282 283 281 277 272 269 269 268 267 266 266 267 267
269 269 269 268 268 269 269 269 268 269 269 269 269 269 270 270 269 269 269 268 268 268 268 268 268 268 268 269 270 271 271 271 271 271 271 271 272 272 271 271 270 271 271 271 271 271 271 272 272 272 272 272 271 271 272 272 272 271 271 272 273 273 273 273 273 274 274 274 276 278 278 279 280 281 281 281 281 278 275 272 271 270 271 271 272 272 272 273
270 270 270 270 270 270 269 269 269 269 269 270 270 271 270 270 269 269 268 268 268 268 268 268 269 269 269 268 269 270 270 271 271 271 271 271 271 272 273 272 271 271 272 271 271 270 270 271 272 273 273 273 273 273 272 271 269 269 269 269 270 271 272 272 272 273 274 274 275 276 277 278 278 277 277 278 278 278 277 276 275 274 274 274 274 274 275 276
270 270 270 270 270 270 270 270 270 270 270 271 271 271 271 270 270 269 269 269 269 268 268 268 269 270 270 270 270 270 271 271 271 271 271 271 271 272 273 274 274 273 273 273 273 272 272 273 274 275 274 274 275 275 274 272 271 270 271 271 270 270 269 269 271 272 272 273 273 274 274 275 274 273 275 277 278 278 278 277 276 275 275 275 274 274 274 274
270 270 270 269 269 269 270 270 270 270 271 271 271 271 270 270 270 270 270 269 269 269 269 270 270 270 270 270 270 270 271 271 271 271 271 271 271 271 271 271 270 269 269 269 269 268 269 271 271 271 271 272 273 274 273 273 271 272 275 276 274 272 271 271 271 270 270 270 271 272 272 273 274 276 277 277 277 277 276 274 273 272 272 272 271 271 272 273
Height
5882 5882 5882 5882 5882 5882 5882 5882 5882 5882 5882 5882 5882 5882 5882 5882 5882 5882 5882 5882 5882 5881 5881 5881 5881 5881 5881 5881 5880 5880 5880 5880 5879 5879 5879 5879 5878 5878 5878 5878 5877 5877 5876 5876 5875 5874 5874 5873 5872 5872 5871 5870 5870 5869 5869 5868 5867 5867 5867 5866 5864 5863 5864 5863 5862 5862 5861 5860 5859 5859 5858 5858 5857 5857 5857 5856 5856 5856 5855 5853 5853 5853 5851 5851 5851 5850 5850 5849
5880 5880 5880 5880 5880 5881 5880 5881 5880 5880 5880 5880 5880 5880 5880 5880 5880 5880 5880 5880 5879 5879 5879 5879 5879 5879 5879 5878 5878 5878 5878 5877 5877 5877 5877 5877 5876 5876 5876 5875 5875 5874 5874 5873 5873 5872 5872 5871 5870 5870 5869 5868 5867 5867 5866 5865 5865 5865 5865 5864 5862 5861 5862 5861 5859 5859 5859 5858 5857 5856 5856 5856 5855 5854 5854 5854 5853 5853 5852 5850 5851 5851 5850 5849 5849 5848 5848 5848
5877 5878 5878 5878 5878 5878 5878 5878 5878 5878 5878 5878 5878 5878 5878 5878 5878 5877 5877 5877 5877 5877 5877 5877 5876 5876 5876 5876 5876 5876 5876 5875 5874 5874 5874 5874 5874 5873 5873 5873 5872 5872 5871 5871 5870 5870 5869 5869 5868 5867 5866 5865 5865 5864 5863 5862 5862 5862 5862 5862 5859 5858 5859 5858 5856 5856 5856 5856 5855 5853 5853 5853 5852 5852 5852 5852 5851 5851 5849 5846 5848 5849 5848 5847 5847 5846 5846 5846
5874 5875 5875 5875 5875 5875 5876 5876 5876 5876 5876 5876 5876 5876 5875 5875 5875 5875 5875 5875 5874 5874 5874 5874 5874 5874 5874 5874 5874 5874 5873 5872 5871 5872 5872 5872 5871 5871 5870 5870 5870 5869 5869 5868 5867 5867 5867 5866 5865 5864 5863 5862 5862 5861 5860 5859 5859 5860 5860 5859 5857 5855 5857 5855 5853 5853 5853 5852 5852 5851 5850 5851 5850 5850 5850 5849 5849 5849 5845 5842 5844 5846 5846 5845 5844 5844 5844 5843
5871 5872 5872 5872 5872 5873 5873 5873 5873 5873 5873 5873 5873 5873 5873 5873 5873 5872 5872 5872 5872 5871 5871 5871 5871 5871 5871 5871 5871 5871 5871 5870 5869 5869 5869 5869 5869 5868 5868 5867 5867 5866 5866 5865 5864 5864 5864 5863 5863 5862 5861 5859 5859 5859 5857 5855 5856 5858 5858 5856 5854 5852 5854 5853 5849 5849 5850 5849 5849 5847 5847 5848 5847 5848 5847 5846 5847 5846 5841 5839 5840 5843 5843 5843 5842 5842 5841 5841
5868 5869 5869 5869 5870 5870 5870 5870 5870 5870 5870 5870 5869 5870 5870 5870 5870 5870 5870 5869 5869 5869 5868 5868 5868 5868 5868 5868 5869 5869 5869 5867 5866 5866 5866 5866 5866 5865 5865 5864 5864 5864 5863 5862 5862 5861 5860 5860 5860 5858 5858 5857 5856 5856 5854 5852 5852 5855 5856 5853 5850 5849 5851 5851 5846 5846 5846 5845 5845 5843 5843 5844 5843 5845 5845 5843 5844 5842 5838 5837 5837 5839 5840 5840 5840 5839 5838 5838
5865 5866 5866 5866 5867 5867 5867 5867 5867 5867 5867 5867 5867 5867 5866 5867 5866 5867 5866 5866 5866 5865 5865 5865 5865 5865 5865 5866 5866 5866 5867 5864 5862 5863 5864 5863 5863 5862 5862 5861 5861 5861 5860 5860 5859 5858 5857 5857 5856 5854 5855 5855 5854 5853 5851 5849 5849 5850 5852 5850 5848 5846 5847 5848 5845 5843 5842 5841 5841 5839 5840 5841 5839 5842 5843 5842 5841 5836 5835 5835 5834 5835 5837 5837 5837 5836 5835 5834
5863 5863 5863 5863 5863 5864 5864 5864 5864 5864 5864 5864 5864 5864 5864 5864 5863 5863 5863 5863 5863 5862 5862 5862 5862 5862 5862 5863 5863 5865 5865 5860 5858 5860 5861 5860 5860 5859 5859 5858 5858 5858 5857 5857 5856 5855 5854 5853 5852 5850 5851 5852 5851 5850 5848 5846 5846 5846 5847 5847 5845 5844 5844 5843 5842 5841 5839 5837 5836 5834 5836 5837 5835 5837 5840 5841 5836 5830 5831 5833 5832 5832 5833 5834 5833 5832 5831 5831
5860 5860 5860 5860 5860 5861 5861 5861 5861 5861 5861 5861 5861 5861 5861 5861 5860 5860 5860 5860 5859 5859 5859 5858 5859 5858 5859 5860 5860 5863 5862 5856 5855 5857 5857 5857 5857 5856 5856 5855 5855 5855 5854 5854 5853 5852 5851 5849 5848 5847 5847 5848 5848 5847 5845 5843 5843 5843 5842 5842 5843 5842 5840 5840 5839 5838 5835 5834 5832 5829 5831 5833 5832 5833 5838 5839 5832 5826 5828 5829 5829 5828 5829 5829 5829 5829 5828 5828
5856 5857 5856 5857 5857 5857 5858 5858 5858 5858 5857 5857 5857 5857 5857 5857 5857 5857 5857 5857 5856 5856 5855 5855 5855 5855 5856 5857 5858 5862 5858 5852 5854 5855 5854 5854 5853 5853 5853 5853 5853 5852 5851 5851 5850 5848 5847 5846 5844 5843 5842 5843 5844 5844 5842 5840 5839 5839 5838 5838 5840 5838 5838 5838 5836 5835 5831 5830 5829 5825 5825 5828 5829 5830 5835 5836 5828 5823 5824 5826 5825 5825 5825 5825 5824 5825 5825 5825
5853 5853 5853 5853 5853 5854 5854 5854 5854 5854 5854 5854 5853 5853 5853 5854 5854 5854 5853 5853 5852 5852 5852 5851 5851 5851 5852 5853 5857 5859 5853 5850 5852 5852 5851 5850 5849 5850 5850 5850 5850 5848 5848 5848 5846 5845 5844 5842 5841 5839 5838 5838 5840 5840 5838 5837 5836 5835 5834 5834 5836 5834 5834 5836 5834 5831 5827 5825 5825 5820 5818 5823 5827 5827 5831 5832 5825 5820 5820 5822 5822 5821 5821 5820 5820 5820 5820 5822
5849 5849 5849 5850 5850 5850 5850 5850 5851 5850 5850 5850 5850 5849 5849 5850 5850 5850 5850 5849 5848 5848 5848 5847 5847 5847 5848 5851 5855 5853 5850 5850 5850 5848 5847 5846 5846 5847 5847 5847 5846 5845 5845 5844 5842 5841 5839 5838 5836 5835 5834 5833 5835 5835 5834 5834 5832 5831 5830 5829 5831 5830 5830 5834 5830 5826 5823 5821 5821 5816 5810 5817 5824 5825 5827 5826 5821 5818 5816 5817 5818 5818 5817 5816 5815 5815 5815 5817
5845 5845 5845 5846 5846 5846 5846 5846 5847 5846 5846 5846 5846 5845 5845 5846 5846 5846 5846 5845 5844 5844 5844 5843 5842 5843 5842 5847 5851 5848 5847 5848 5847 5845 5843 5842 5844 5845 5844 5843 5843 5842 5841 5840 5839 5837 5835 5834 5832 5830 5830 5829 5831 5830 5829 5829 5827 5827 5825 5822 5826 5826 5827 5831 5825 5820 5820 5818 5818 5812 5804 5810 5821 5823 5823 5820 5816 5814 5813 5814 5815 5814 5813 5812 5811 5810 5810 5812
5841 5841 5841 5841 5841 5842 5842 5842 5842 5842 5842 5842 5842 5841 5841 5841 5841 5842 5842 5841 5840 5840 5840 5839 5838 5838 5837 5843 5847 5845 5844 5844 5843 5841 5839 5839 5841 5840 5840 5839 5839 5839 5838 5836 5835 5834 5831 5830 5827 5826 5826 5826 5827 5826 5825 5824 5822 5823 5820 5818 5820 5817 5819 5825 5820 5816 5818 5816 5814 5808 5799 5803 5814 5819 5820 5816 5811 5811 5809 5810 5811 5810 5809 5808 5807 5806 5806 5807
5837 5837 5837 5837 5837 5837 5837 5837 5838 5838 5838 5838 5837 5837 5837 5837 5837 5837 5837 5837 5836 5835 5835 5834 5834 5833 5832 5838 5842 5841 5841 5840 5838 5837 5836 5837 5837 5836 5836 5835 5835 5835 5834 5832 5831 5830 5828 5826 5823 5822 5822 5823 5824 5823 5821 5818 5818 5820 5815 5813 5814 5809 5809 5815 5816 5816 5816 5814 5810 5804 5796 5797 5806 5813 5816 5812 5808 5807 5805 5805 5806 5806 5805 5804 5803 5803 5802 5802
5832 5832 5832 5833 5833 5833 5833 5833 5833 5833 5833 5833 5833 5833 5833 5832 5832 5832 5833 5833 5832 5831 5831 5829 5830 5829 5827 5833 5838 5838 5837 5836 5834 5833 5833 5833 5833 5833 5833 5831 5831 5830 5829 5828 5827 5826 5824 5821 5818 5817 5818 5820 5822 5821 5816 5812 5815 5818 5810 5805 5807 5804 5802 5806 5813 5816 5814 5809 5804 5800 5793 5791 5798 5806 5809 5808 5805 5803 5800 5801 5802 5801 5801 5800 5799 5799 5798 5798
5828 5828 5828 5828 5828 5828 5828 5828 5828 5829 5829 5829 5829 5829 5828 5828 5827 5827 5828 5828 5827 5827 5826 5825 5826 5824 5822 5827 5832 5834 5833 5831 5830 5829 5829 5829 5829 5829 5828 5827 5827 5825 5824 5823 5822 5822 5820 5816 5813 5813 5814 5817 5821 5818 5811 5808 5811 5812 5807 5801 5800 5801 5800 5800 5807 5813 5810 5804 5798 5794 5789 5787 5794 5799 5801 5802 5801 5798 5797 5797 5798 5798 5798 5797 5796 5794 5794 5794
5823 5823 5823 5823 5824 5824 5824 5824 5824 5824 5824 5824 5824 5824 5823 5823 5822 5822 5822 5823 5822 5822 5821 5821 5821 5818 5819 5823 5825 5828 5829 5826 5826 5826 5825 5825 5825 5825 5824 5823 5822 5820 5819 5818 5818 5817 5814 5811 5808 5807 5810 5815 5819 5814 5806 5804 5806 5804 5802 5799 5796 5797 5797 5797 5801 5806 5804 5798 5792 5788 5783 5784 5788 5792 5794 5797 5796 5793 5794 5795 5795 5795 5795 5794 5793 5791 5790 5789
5818 5818 5818 5818 5819 5819 5819 5819 5819 5819 5819 5818 5818 5818 5818 5817 5817 5816 5816 5816 5817 5816 5815 5815 5816 5814 5815 5818 5819 5821 5822 5821 5821 5821 5822 5822 5822 5820 5819 5817 5816 5815 5813 5813 5813 5811 5808 5805 5803 5803 5808 5814 5814 5808 5802 5801 5801 5798 5796 5795 5793 5792 5792 5795 5797 5798 5796 5790 5786 5784 5780 5779 5781 5783 5788 5793 5791 5788 5790 5792 5791 5791 5791 5790 5789 5787 5787 5786
5812 5813 5812 5813 5813 5813 5814 5814 5814 5814 5814 5814 5813 5812 5812 5812 5812 5811 5810 5811 5811 5811 5810 5809 5809 5810 5811 5813 5813 5813 5814 5816 5816 5817 5818 5818 5817 5815 5814 5813 5811 5809 5808 5808 5806 5804 5802 5800 5798 5801 5808 5811 5807 5801 5798 5798 5797 5794 5791 5790 5789 5788 5788 5792 5793 5792 5791 5782 5777 5780 5778 5776 5777 5778 5781 5787 5787 5785 5786 5788 5787 5786 5785 5784 5784 5784 5784 5783
5807 5807 5807 5807 5807 5807 5808 5808 5808 5808 5808 5808 5808 5807 5806 5805 5805 5805 5805 5805 5806 5805 5805 5804 5803 5804 5808 5807 5806 5806 5807 5809 5812 5814 5814 5813 5812 5810 5809 5808 5804 5802 5803 5802 5799 5798 5797 5793 5794 5801 5805 5803 5798 5796 5795 5794 5792 5789 5788 5786 5784 5784 5785 5787 5787 5787 5786 5777 5772 5774 5772 5771 5773 5773 5775 5779 5781 5782 5782 5782 5782 5782 5780 5778 5779 5780 5780 5779
5801 5801 5801 5801 5801 5802 5801 5802 5802 5802 5802 5802 5801 5801 5800 5799 5799 5798 5798 5798 5801 5801 5799 5799 5798 5798 5801 5801 5800 5800 5799 5803 5807 5808 5807 5806 5806 5805 5804 5801 5798 5797 5797 5794 5793 5794 5791 5787 5793 5798 5797 5793 5791 5792 5791 5789 5787 5785 5784 5782 5780 5782 5781 5779 5782 5782 5779 5773 5769 5769 5765 5764 5767 5768 5770 5774 5776 5779 5779 5776 5776 5776 5776 5775 5775 5775 5775 5775
5794 5795 5795 5794 5795 5795 5795 5795 5795 5795 5795 5795 5795 5794 5794 5794 5793 5792 5790 5789 5794 5797 5795 5795 5794 5792 5794 5795 5794 5794 5794 5798 5801 5800 5800 5800 5800 5800 5797 5795 5793 5791 5789 5789 5791 5789 5783 5784 5791 5792 5788 5787 5788 5787 5785 5783 5782 5780 5781 5779 5776 5779 5777 5773 5774 5775 5774 5769 5766 5765 5760 5756 5760 5762 5765 5770 5772 5775 5774 5771 5770 5771 5773 5772 5771 5771 5770 5770
5788 5788 5788 5788 5788 5788 5788 5788 5788 5788 5788 5788 5788 5788 5788 5788 5787 5786 5785 5781 5783 5790 5793 5790 5787 5786 5788 5788 5789 5790 5791 5792 5792 5793 5793 5792 5792 5792 5790 5789 5786 5784 5785 5786 5787 5782 5777 5780 5785 5784 5783 5783 5782 5780 5779 5778 5777 5776 5777 5776 5773 5775 5774 5768 5767 5767 5765 5764 5763 5763 5755 5750 5755 5757 5759 5766 5769 5769 5769 5768 5767 5768 5771 5768 5766 5767 5766 5764
5781 5781 5781 5781 5781 5781 5782 5781 5781 5781 5781 5781 5781 5781 5781 5781 5781 5780 5779 5775 5774 5781 5787 5785 5782 5781 5782 5782 5784 5786 5785 5785 5786 5786 5784 5784 5784 5784 5784 5782 5780 5781 5782 5781 5779 5774 5773 5778 5779 5778 5778 5777 5775 5774 5774 5773 5773 5772 5771 5772 5771 5770 5768 5766 5765 5761 5757 5757 5758 5759 5752 5746 5748 5750 5754 5761 5764 5763 5763 5764 5765 5766 5768 5765 5761 5761 5762 5760
5774 5774 5774 5774 5774 5775 5775 5774 5774 5774 5774 5775 5774 5775 5775 5774 5775 5774 5773 5770 5767 5772 5777 5776 5776 5776 5777 5778 5779 5779 5778 5779 5780 5778 5777 5777 5777 5776 5776 5776 5775 5777 5776 5774 5771 5767 5769 5775 5775 5772 5771 5770 5768 5768 5769 5769 5768 5765 5764 5767 5767 5764 5763 5762 5761 5757 5753 5752 5751 5751 5748 5743 5742 5745 5750 5754 5755 5755 5756 5759 5762 5764 5764 5763 5758 5756 5756 5755
5768 5768 5768 5768 5768 5768 5769 5768 5767 5767 5768 5768 5768 5768 5768 5768 5768 5768 5768 5764 5760 5764 5767 5766 5768 5771 5773 5774 5773 5773 5772 5772 5773 5772 5771 5771 5769 5769 5769 5769 5770 5770 5769 5767 5764 5763 5767 5770 5768 5767 5766 5764 5762 5764 5767 5764 5760 5759 5760 5761 5760 5759 5758 5757 5755 5753 5750 5749 5746 5744 5743 5741 5739 5740 5743 5745 5745 5746 5749 5753 5756 5758 5760 5760 5757 5754 5751 5750
5762 5762 5762 5762 5762 5763 5763 5763 5761 5761 5762 5762 5762 5761 5761 5762 5762 5762 5763 5756 5752 5757 5758 5758 5761 5763 5765 5766 5766 5766 5765 5765 5765 5765 5766 5764 5763 5763 5763 5763 5763 5763 5763 5760 5758 5760 5761 5762 5762 5762 5759 5758 5759 5761 5760 5756 5753 5754 5756 5754 5753 5753 5752 5752 5751 5748 5746 5745 5741 5738 5741 5741 5738 5737 5737 5735 5734 5737 5742 5746 5748 5751 5754 5755 5754 5752 5748 5746
5756 5757 5757 5757 5758 5758 5758 5758 5756 5755 5756 5756 5756 5755 5755 5756 5756 5757 5756 5749 5745 5749 5751 5753 5755 5755 5754 5755 5758 5760 5759 5758 5757 5757 5758 5757 5757 5757 5756 5757 5756 5755 5756 5754 5754 5756 5755 5755 5757 5754 5753 5754 5755 5754 5752 5750 5749 5749 5749 5747 5746 5746 5746 5746 5744 5743 5741 5738 5734 5735 5739 5741 5736 5734 5732 5729 5728 5731 5735 5738 5741 5742 5746 5750 5750 5748 5745 5743
5751 5751 5751 5751 5752 5753 5753 5753 5750 5749 5750 5750 5750 5750 5750 5750 5751 5751 5747 5742 5741 5743 5747 5749 5748 5746 5747 5747 5748 5750 5752 5752 5750 5749 5749 5749 5749 5749 5749 5750 5748 5748 5749 5747 5748 5751 5749 5749 5749 5747 5748 5749 5748 5746 5745 5745 5743 5742 5742 5741 5740 5739 5739 5738 5737 5736 5734 5731 5733 5735 5738 5739 5732 5725 5725 5724 5724 5726 5727 5730 5732 5732 5734 5740 5743 5743 5741 5740
5744 5744 5745 5745 5746 5747 5747 5747 5744 5744 5744 5744 5744 5744 5743 5743 5745 5743 5739 5738 5738 5738 5742 5743 5740 5740 5741 5740 5740 5741 5742 5743 5744 5743 5742 5742 5741 5741 5742 5742 5740 5740 5741 5741 5742 5744 5743 5741 5742 5742 5741 5741 5740 5739 5739 5739 5737 5737 5737 5736 5734 5733 5732 5729 5728 5728 5725 5727 5732 5732 5733 5735 5726 5719 5721 5722 5721 5722 5722 5723 5724 5723 5724 5728 5733 5735 5736 5736
5737 5738 5738 5739 5740 5740 5740 5739 5738 5738 5737 5738 5737 5737 5737 5736 5736 5736 5735 5735 5732 5731 5736 5736 5733 5734 5734 5734 5735 5734 5734 5734 5735 5736 5736 5736 5736 5736 5735 5734 5733 5731 5732 5735 5736 5736 5737 5737 5736 5735 5735 5735 5733 5732 5732 5732 5732 5731 5730 5729 5726 5725 5724 5720 5720 5719 5719 5726 5728 5725 5725 5723 5716 5716 5720 5720 5721 5721 5719 5718 5717 5717 5717 5719 5722 5725 5727 5729
5730 5731 5731 5732 5733 5733 5732 5732 5731 5730 5730 5731 5730 5730 5730 5728 5729 5731 5731 5730 5727 5726 5729 5729 5727 5728 5728 5729 5729 5727 5727 5727 5726 5726 5727 5728 5729 5731 5730 5728 5727 5724 5724 5727 5727 5727 5729 5731 5731 5728 5729 5730 5727 5725 5725 5725 5725 5723 5723 5722 5719 5718 5715 5710 5712 5713 5715 5721 5721 5717 5715 5709 5708 5714 5717 5718 5721 5719 5716 5714 5712 5712 5711 5710 5711 5713 5715 5719
5723 5723 5724 5724 5725 5725 5725 5724 5723 5722 5722 5723 5723 5722 5721 5720 5723 5726 5725 5725 5723 5721 5722 5722 5721 5721 5721 5722 5722 5721 5721 5719 5718 5718 5717 5718 5720 5722 5724 5723 5721 5719 5718 5718 5718 5719 5719 5723 5728 5723 5721 5723 5720 5718 5717 5716 5716 5715 5716 5714 5710 5711 5708 5703 5707 5709 5708 5710 5709 5707 5704 5700 5704 5711 5712 5713 5714 5713 5711 5710 5709 5709 5706 5703 5702 5702 5703 5706
5715 5716 5716 5717 5717 5716 5716 5715 5715 5714 5712 5713 5714 5712 5711 5714 5717 5719 5720 5720 5717 5715 5716 5715 5715 5715 5715 5716 5715 5715 5714 5711 5711 5711 5709 5709 5710 5713 5716 5716 5715 5714 5712 5710 5711 5713 5709 5714 5723 5717 5711 5715 5713 5711 5710 5707 5706 5707 5707 5704 5702 5706 5705 5699 5698 5699 5698 5696 5695 5696 5693 5695 5703 5705 5706 5708 5707 5706 5705 5703 5704 5704 5701 5698 5696 5695 5695 5695
5707 5707 5708 5710 5710 5707 5706 5706 5706 5704 5703 5704 5702 5701 5706 5710 5711 5711 5712 5712 5709 5708 5709 5708 5709 5709 5708 5708 5708 5708 5707 5704 5703 5701 5701 5702 5702 5705 5709 5708 5708 5707 5705 5703 5703 5703 5699 5703 5714 5709 5704 5707 5705 5703 5703 5699 5697 5699 5698 5697 5698 5700 5698 5691 5686 5688 5688 5681 5682 5688 5685 5688 5697 5697 5700 5704 5701 5700 5700 5698 5698 5695 5693 5692 5691 5691 5690 5688
5699 5699 5700 5703 5703 5698 5697 5698 5697 5694 5694 5693 5689 5693 5701 5703 5703 5704 5703 5703 5702 5700 5700 5700 5701 5702 5700 5699 5701 5702 5699 5696 5695 5693 5693 5693 5693 5698 5702 5700 5699 5699 5698 5696 5693 5693 5690 5691 5701 5702 5696 5698 5698 5696 5695 5692 5690 5688 5689 5692 5692 5688 5686 5684 5676 5676 5677 5668 5668 5679 5679 5680 5685 5686 5693 5699 5697 5696 5694 5692 5691 5687 5686 5686 5685 5686 5685 5683
5690 5690 5692 5696 5695 5690 5689 5689 5687 5686 5684 5681 5681 5687 5693 5694 5696 5697 5696 5695 5694 5691 5690 5689 5691 5693 5691 5691 5694 5694 5690 5689 5688 5685 5685 5685 5685 5689 5693 5692 5692 5692 5692 5689 5684 5685 5683 5679 5686 5694 5689 5686 5689 5689 5687 5686 5684 5681 5681 5684 5682 5677 5676 5676 5669 5664 5665 5658 5655 5664 5669 5672 5676 5677 5682 5688 5690 5691 5687 5684 5682 5679 5678 5678 5678 5678 5676 5674
5682 5681 5684 5688 5685 5682 5681 5679 5678 5677 5673 5671 5675 5680 5685 5687 5689 5689 5687 5686 5685 5681 5679 5680 5681 5681 5681 5684 5685 5684 5682 5681 5679 5678 5677 5677 5677 5681 5684 5684 5684 5685 5685 5683 5677 5677 5677 5670 5672 5685 5684 5676 5677 5680 5679 5679 5678 5674 5673 5673 5672 5670 5668 5666 5661 5657 5656 5650 5646 5648 5651 5657 5669 5675 5675 5676 5679 5680 5678 5676 5674 5672 5671 5671 5670 5668 5665 5662
5673 5673 5677 5679 5676 5674 5673 5669 5668 5667 5663 5664 5670 5673 5676 5678 5679 5681 5680 5677 5676 5673 5670 5671 5671 5669 5670 5674 5675 5674 5674 5672 5671 5671 5668 5668 5670 5673 5676 5676 5677 5678 5676 5674 5671 5668 5667 5662 5660 5671 5675 5668 5668 5672 5671 5670 5669 5665 5663 5663 5663 5663 5661 5656 5651 5651 5649 5642 5638 5636 5631 5638 5660 5670 5667 5667 5668 5667 5667 5666 5665 5666 5665 5664 5661 5658 5657 5654
5665 5666 5669 5669 5666 5665 5664 5659 5657 5659 5656 5658 5664 5666 5666 5668 5670 5673 5672 5667 5665 5664 5661 5661 5661 5661 5662 5663 5665 5666 5663 5660 5662 5663 5659 5661 5663 5663 5667 5669 5669 5668 5666 5664 5663 5660 5658 5654 5650 5656 5660 5659 5663 5667 5662 5659 5659 5657 5653 5654 5655 5654 5653 5647 5641 5644 5645 5635 5630 5628 5618 5621 5646 5662 5662 5661 5659 5656 5657 5656 5655 5657 5656 5655 5653 5650 5648 5647
5657 5658 5659 5659 5657 5657 5654 5649 5649 5652 5649 5651 5658 5659 5657 5658 5661 5663 5662 5658 5655 5654 5652 5651 5653 5654 5654 5654 5655 5655 5652 5648 5651 5652 5651 5654 5655 5654 5659 5662 5659 5657 5655 5653 5653 5652 5649 5644 5639 5641 5645 5650 5656 5659 5655 5650 5650 5648 5643 5644 5646 5645 5644 5639 5632 5636 5638 5629 5625 5622 5608 5607 5630 5652 5658 5655 5651 5648 5647 5646 5647 5648 5646 5645 5644 5643 5640 5638
5648 5650 5649 5648 5648 5646 5642 5640 5642 5643 5641 5645 5651 5650 5648 5649 5651 5652 5652 5649 5645 5643 5643 5643 5644 5645 5644 5645 5645 5643 5642 5638 5638 5642 5644 5644 5645 5647 5651 5651 5648 5647 5645 5643 5643 5643 5639 5633 5629 5629 5631 5635 5641 5646 5645 5642 5640 5636 5634 5639 5639 5636 5638 5633 5627 5628 5625 5619 5620 5614 5598 5598 5617 5639 5649 5649 5646 5643 5640 5639 5638 5637 5638 5637 5635 5634 5632 5628
5638 5640 5639 5637 5637 5634 5631 5632 5636 5635 5634 5637 5638 5638 5639 5639 5640 5644 5645 5640 5635 5635 5635 5634 5635 5634 5634 5635 5633 5632 5633 5629 5626 5632 5635 5634 5636 5640 5641 5639 5637 5638 5636 5635 5634 5632 5627 5624 5623 5621 5619 5620 5624 5629 5632 5634 5633 5627 5627 5633 5630 5627 5629 5623 5620 5620 5609 5607 5614 5603 5586 5593 5610 5622 5631 5637 5639 5639 5639 5636 5630 5626 5628 5628 5626 5624 5621 5618
5628 5630 5631 5628 5625 5623 5622 5625 5626 5623 5624 5627 5626 5628 5630 5629 5632 5637 5636 5630 5628 5627 5626 5625 5625 5624 5623 5623 5622 5622 5624 5621 5617 5619 5623 5625 5626 5628 5630 5630 5629 5629 5628 5626 5624 5621 5617 5616 5616 5613 5609 5609 5611 5616 5622 5626 5623 5617 5617 5621 5621 5620 5619 5613 5611 5606 5596 5597 5603 5590 5579 5589 5602 5605 5610 5619 5625 5627 5630 5631 5627 5621 5617 5616 5614 5610 5606 5602
5618 5619 5622 5620 5615 5613 5615 5618 5616 5612 5614 5617 5615 5616 5620 5621 5624 5627 5624 5621 5620 5619 5617 5615 5616 5614 5612 5613 5612 5611 5613 5614 5610 5607 5611 5614 5614 5615 5618 5621 5621 5619 5618 5617 5615 5612 5606 5604 5606 5605 5600 5600 5602 5606 5614 5615 5608 5605 5606 5608 5610 5611 5609 5606 5599 5591 5590 5590 5584 5580 5581 5582 5587 5592 5594 5600 5607 5608 5611 5616 5617 5614 5609 5604 5600 5593 5587 5584
5608 5609 5611 5610 5606 5606 5608 5609 5607 5604 5605 5607 5604 5605 5610 5613 5613 5613 5612 5611 5611 5610 5607 5605 5606 5605 5602 5603 5604 5600 5602 5605 5603 5600 5600 5602 5603 5605 5608 5609 5609 5608 5609 5608 5606 5604 5596 5591 5596 5597 5591 5592 5595 5596 5602 5602 5596 5594 5595 5595 5598 5598 5597 5595 5585 5581 5587 5578 5562 5570 5582 5572 5571 5582 5583 5584 5590 5591 5594 5598 5598 5598 5595 5590 5583 5577 5573 5574
5599 5600 5600 5599 5597 5600 5600 5599 5599 5596 5596 5597 5595 5596 5601 5603 5602 5601 5601 5601 5601 5601 5599 5595 5595 5595 5593 5594 5594 5591 5591 5594 5594 5592 5592 5591 5592 5594 5598 5599 5597 5596 5600 5599 5595 5594 5586 5579 5587 5589 5582 5583 5586 5585 5588 5589 5584 5584 5585 5584 5587 5588 5586 5582 5575 5575 5578 5564 5551 5563 5570 5561 5563 5572 5571 5572 5575 5576 5579 5581 5580 5579 5576 5572 5569 5568 5567 5567
5590 5590 5590 5588 5589 5592 5591 5590 5590 5588 5587 5588 5587 5588 5592 5593 5593 5592 5590 5590 5591 5592 5591 5586 5584 5586 5586 5585 5584 5582 5581 5582 5582 5582 5583 5583 5582 5582 5586 5589 5588 5587 5589 5588 5587 5585 5576 5569 5575 5577 5571 5571 5574 5575 5577 5576 5573 5573 5574 5574 5576 5576 5575 5572 5567 5568 5566 5554 5551 5556 5553 5551 5557 5559 5557 5560 5561 5562 5564 5565 5565 5564 5561 5560 5561 5561 5558 5556
5581 5581 5581 5580 5581 5584 5582 5580 5581 5579 5580 5580 5577 5580 5583 5583 5582 5582 5581 5581 5581 5582 5582 5578 5575 5576 5576 5576 5575 5573 5572 5572 5572 5572 5573 5573 5573 5573 5573 5575 5579 5579 5578 5577 5577 5576 5570 5563 5564 5566 5560 5557 5562 5564 5565 5564 5562 5560 5561 5564 5566 5565 5564 5561 5558 5558 5555 5547 5547 5548 5542 5540 5544 5545 5547 5550 5550 5550 5552 5552 5552 5551 5549 5550 5551 5549 5548 5546
5571 5571 5572 5571 5572 5574 5574 5572 5572 5570 5571 5573 5570 5570 5573 5573 5571 5571 5572 5572 5571 5571 5573 5571 5567 5566 5566 5566 5565 5564 5563 5564 5562 5563 5564 5563 5564 5565 5564 5564 5569 5569 5567 5568 5566 5565 5563 5556 5556 5557 5548 5545 5553 5554 5550 5551 5549 5544 5546 5552 5557 5556 5553 5550 5549 5549 5546 5540 5538 5538 5533 5529 5529 5534 5539 5542 5540 5539 5539 5540 5539 5538 5538 5539 5538 5538 5537 5536
5562 5561 5562 5562 5563 5565 5565 5564 5563 5561 5562 5565 5562 5560 5562 5563 5562 5562 5562 5561 5560 5562 5564 5562 5559 5557 5556 5556 5556 5554 5554 5554 5552 5553 5554 5554 5555 5557 5557 5558 5560 5558 5558 5561 5558 5556 5555 5549 5548 5549 5537 5533 5544 5545 5541 5539 5531 5528 5538 5544 5545 5544 5542 5539 5540 5538 5536 5533 5529 5526 5522 5518 5518 5523 5529 5531 5530 5529 5528 5528 5526 5525 5527 5528 5527 5527 5526 5525